Flag for Hungary Weather past 2 weeks in Szeged, Hungary

Now
84 °F

Passing clouds.


Feels Like: 87 °F
Forecast: 72 / 95 °F
Wind: 2 mph from Northeast

Location: Szeged

Current Time: Aug 5, 2015 at 11:03:08 AM

Latest Report: Aug 5, 2015 at 10:00 AM


Visibility: 19 mi

Pressure: 30.00 "Hg

Humidity: 56%

Dew point: 67 °F

Location of SzegedLocation

Historic Weather in Szeged — Graph

°F

Szeged temperature yesterday

Maximum temperature yesterday: 89 °F (at 5:00 PM)
Minimum temperature yesterday: 68 °F (at 6:00 AM)
Average temperature yesterday: 77 °F

Past Weeks' High & Low Weather Summary

 TemperatureHumidityPressure
High97 °F (Jul 23, 2:00 PM)97% (Jul 27, 10:00 PM)30.09 "Hg (Jul 27, 10:00 PM)
Low49 °F (Aug 1, 5:00 AM)25% (Jul 23, 5:00 PM)29.67 "Hg (Jul 25, 7:00 PM)
Average74 °F66%29.91 "Hg
* Reported Jul 21 9:00 AM — Aug 5 9:00 AM, Szeged, Weather by CustomWeather, © 2015

Note: Actual official high and low records may vary slightly from our data, if they occured in-between our weather recording intervals... More about our weather records

Advertising

Szeged weather history for previous 24 hours

 ConditionsComfort  
Time TempWeatherWind HumidityBarometerVisibility
9:00 AM
Wed, Aug 5
81 °FPassing clouds.1 mph64%30.01 "Hg14 mi
8:00 AM75 °FOvercast.2 mph83%30.01 "Hg11 mi
7:00 AM71 °FPartly sunny.2 mph96%30.00 "Hg7 mi
5:00 AM67 °FPassing clouds.No wind95%29.99 "Hg7 mi
4:00 AM67 °FClear.2 mph95%29.98 "Hg9 mi
3:00 AM69 °FClear.1 mph94%29.97 "Hg9 mi
2:00 AM70 °FPassing clouds.1 mph93%29.97 "Hg9 mi
1:00 AM71 °FPassing clouds.No wind92%29.97 "Hg9 mi
12:00 AM72 °FPassing clouds.No wind92%29.97 "Hg9 mi
11:00 PM
Tue, Aug 4
72 °FPassing clouds.1 mph90%29.96 "Hg9 mi
10:00 PM74 °FPassing clouds.2 mph85%29.96 "Hg12 mi
9:00 PM77 °FPassing clouds.1 mph76%29.95 "Hg12 mi
8:00 PM81 °FPassing clouds.2 mph65%29.94 "Hg16 mi
7:00 PM85 °FPassing clouds.2 mph54%29.94 "Hg17 mi
6:00 PM88 °FPassing clouds.1 mph48%29.93 "Hg19 mi
5:00 PM89 °FPassing clouds.1 mph44%29.94 "Hg16 mi
4:00 PM88 °FPassing clouds.1 mph42%29.95 "Hg19 mi
3:00 PM87 °FPassing clouds.2 mph43%29.97 "Hg16 mi
2:00 PM86 °FScattered clouds.2 mph49%29.99 "Hg16 mi
1:00 PM84 °FScattered clouds.1 mph56%30.00 "Hg19 mi
12:00 PM80 °FScattered clouds.2 mph68%30.02 "Hg14 mi
11:00 AM77 °FPartly sunny.1 mph71%30.02 "Hg9 mi
Weather by CustomWeather, © 2015

See weather overviewHow to use our weather pages